Hourly Weather Chinabad

Today, 17 April, Saturday

Time Temperature Precipitation Wind Pressure Humidity
00:00 +21°C° 0 mm 2 mps 728 mmHg 30%
01:00 +20°C° 0 mm 2 mps 727 mmHg 32%
02:00 +20°C° 0 mm 2 mps 727 mmHg 33%
03:00 +19°C° 0 mm 2 mps 728 mmHg 35%
04:00 +19°C° 0 mm 1 mps 728 mmHg 37%
05:00 +18°C° 0 mm 1 mps 728 mmHg 39%
06:00 +19°C° 0 mm 1 mps 729 mmHg 37%
07:00 +21°C° 0 mm 1 mps 729 mmHg 35%
08:00 +22°C° 0 mm 1 mps 729 mmHg 33%
09:00 +23°C° 0 mm 1 mps 729 mmHg 30%
10:00 +25°C° 0 mm 1 mps 729 mmHg 26%
11:00 +26°C° 0 mm 1 mps 729 mmHg 23%
12:00 +27°C° 0 mm 2 mps 729 mmHg 21%
13:00 +28°C° 0 mm 2 mps 728 mmHg 19%
14:00 +29°C° 0 mm 3 mps 728 mmHg 16%
15:00 +29°C° 0 mm 3 mps 728 mmHg 16%
16:00 +29°C° 0 mm 3 mps 727 mmHg 15%
17:00 +29°C° 0 mm 4 mps 727 mmHg 15%
18:00 +28°C° 0 mm 5 mps 727 mmHg 17%
19:00 +27°C° 0 mm 5 mps 727 mmHg 19%
20:00 +26°C° 0 mm 6 mps 727 mmHg 22%
21:00 +24°C° 0 mm 6 mps 727 mmHg 23%
22:00 +24°C° 0 mm 6 mps 727 mmHg 24%
23:00 +23°C° 0 mm 7 mps 727 mmHg 25%

Tomorrow, 18 April, Sunday

Time Temperature Precipitation Wind Pressure Humidity
00:00 +23°C° 0 mm 6 mps 727 mmHg 27%
01:00 +22°C° 0 mm 6 mps 727 mmHg 28%
02:00 +22°C° 0 mm 6 mps 727 mmHg 29%
03:00 +21°C° 0 mm 6 mps 727 mmHg 30%
04:00 +21°C° 0 mm 5 mps 728 mmHg 30%
05:00 +21°C° 0 mm 5 mps 728 mmHg 31%
06:00 +21°C° 0 mm 5 mps 728 mmHg 30%
07:00 +22°C° 0 mm 5 mps 729 mmHg 29%
08:00 +22°C° 0 mm 5 mps 729 mmHg 27%
09:00 +23°C° 0 mm 5 mps 730 mmHg 26%
10:00 +25°C° 0 mm 5 mps 730 mmHg 24%
11:00 +26°C° 0 mm 5 mps 730 mmHg 22%
12:00 +26°C° 0 mm 5 mps 730 mmHg 21%
13:00 +27°C° 0 mm 6 mps 730 mmHg 19%
14:00 +27°C° 0 mm 6 mps 729 mmHg 18%
15:00 +27°C° 0 mm 6 mps 729 mmHg 18%
16:00 +27°C° 0 mm 6 mps 729 mmHg 18%
17:00 +27°C° 0 mm 6 mps 729 mmHg 18%
18:00 +26°C° 0 mm 6 mps 729 mmHg 19%
19:00 +25°C° 0 mm 5 mps 730 mmHg 21%
20:00 +23°C° 0 mm 4 mps 730 mmHg 22%
21:00 +22°C° 0 mm 4 mps 730 mmHg 25%
22:00 +21°C° 0 mm 3 mps 730 mmHg 27%
23:00 +20°C° 0 mm 3 mps 730 mmHg 30%

Day after tomorrow, 19 April, Monday

Time Temperature Precipitation Wind Pressure Humidity
00:00 +19°C° 0 mm 2 mps 729 mmHg 32%
01:00 +19°C° 0 mm 2 mps 729 mmHg 35%
02:00 +19°C° 0 mm 1 mps 729 mmHg 38%
03:00 +18°C° 0 mm 1 mps 729 mmHg 39%
04:00 +18°C° 0 mm 1 mps 730 mmHg 41%
05:00 +18°C° 0 mm 1 mps 730 mmHg 43%
06:00 +17°C° 0 mm 2 mps 730 mmHg 41%
07:00 +18°C° 0 mm 2 mps 730 mmHg 39%
08:00 +19°C° 0 mm 2 mps 730 mmHg 36%
09:00 +21°C° 0 mm 2 mps 730 mmHg 32%
10:00 +24°C° 0 mm 2 mps 729 mmHg 29%
11:00 +25°C° 0 mm 3 mps 729 mmHg 25%
12:00 +26°C° 0 mm 2 mps 728 mmHg 22%
13:00 +27°C° 0 mm 2 mps 728 mmHg 20%
14:00 +27°C° 0 mm 1 mps 727 mmHg 17%
15:00 +27°C° 0 mm 1 mps 727 mmHg 17%
16:00 +27°C° 0 mm 1 mps 726 mmHg 16%
17:00 +27°C° 0 mm 1 mps 726 mmHg 15%
18:00 +26°C° 0 mm 1 mps 726 mmHg 17%
19:00 +25°C° 0 mm 1 mps 726 mmHg 18%
20:00 +25°C° 0 mm 2 mps 726 mmHg 19%
21:00 +24°C° 0 mm 1 mps 726 mmHg 20%
22:00 +23°C° 0 mm 1 mps 725 mmHg 22%
23:00 +22°C° 0 mm 1 mps 725 mmHg 23%

20 April, Tuesday

Time Temperature Precipitation Wind Pressure Humidity
00:00 +22°C° 0 mm 1 mps 725 mmHg 25%
01:00 +21°C° 0 mm 1 mps 725 mmHg 26%
02:00 +21°C° 0 mm 1 mps 725 mmHg 27%
03:00 +20°C° 0 mm 1 mps 724 mmHg 29%
04:00 +20°C° 0 mm 1 mps 724 mmHg 31%
05:00 +19°C° 0 mm 1 mps 724 mmHg 33%
06:00 +20°C° 0 mm 1 mps 725 mmHg 31%
07:00 +21°C° 0 mm 1 mps 725 mmHg 30%
08:00 +22°C° 0 mm 1 mps 725 mmHg 28%
09:00 +23°C° 0 mm 1 mps 725 mmHg 26%
10:00 +25°C° 0 mm 1 mps 725 mmHg 23%
11:00 +26°C° 0 mm 1 mps 724 mmHg 20%
12:00 +27°C° 0 mm 2 mps 724 mmHg 18%
13:00 +28°C° 0 mm 3 mps 723 mmHg 17%
14:00 +29°C° 0 mm 4 mps 723 mmHg 15%
15:00 +29°C° 0 mm 5 mps 723 mmHg 15%
16:00 +29°C° 0 mm 5 mps 722 mmHg 15%
17:00 +29°C° 0 mm 6 mps 722 mmHg 16%
18:00 +27°C° 0 mm 7 mps 722 mmHg 20%
19:00 +26°C° 0 mm 8 mps 722 mmHg 24%
20:00 +23°C° 0 mm 8 mps 722 mmHg 28%
21:00 +22°C° 0 mm 9 mps 722 mmHg 32%
22:00 +22°C° 0 mm 9 mps 722 mmHg 35%
23:00 +21°C° 0 mm 10 mps 722 mmHg 39%

21 April, Wednesday

Time Temperature Precipitation Wind Pressure Humidity
00:00 +19°C° 0 mm 10 mps 723 mmHg 43%
01:00 +18°C° 0 mm 10 mps 723 mmHg 47%
02:00 +17°C° 0 mm 9 mps 723 mmHg 51%
03:00 +16°C° 0 mm 9 mps 723 mmHg 53%
04:00 +16°C° 0 mm 9 mps 723 mmHg 55%
05:00 +16°C° 0 mm 9 mps 723 mmHg 56%
06:00 +16°C° 0 mm 9 mps 724 mmHg 54%
07:00 +17°C° 0 mm 8 mps 725 mmHg 51%
08:00 +17°C° 0 mm 7 mps 725 mmHg 49%
09:00 +18°C° 0 mm 8 mps 725 mmHg 47%
10:00 +18°C° 0 mm 8 mps 726 mmHg 45%
11:00 +20°C° 0 mm 8 mps 726 mmHg 42%
12:00 +19°C° 0 mm 9 mps 726 mmHg 42%
13:00 +19°C° 0 mm 10 mps 726 mmHg 42%
14:00 +19°C° 0 mm 10 mps 726 mmHg 41%
15:00 +21°C° 0 mm 10 mps 726 mmHg 41%
16:00 +21°C° 0 mm 10 mps 726 mmHg 41%
17:00 +21°C° 0 mm 10 mps 726 mmHg 41%
18:00 +19°C° 0 mm 10 mps 726 mmHg 43%
19:00 +18°C° 0 mm 9 mps 727 mmHg 45%
20:00 +17°C° 0 mm 9 mps 727 mmHg 47%
21:00 +17°C° 0 mm 8 mps 727 mmHg 49%
22:00 +16°C° 0 mm 7 mps 728 mmHg 51%
23:00 +16°C° 0 mm 5 mps 728 mmHg 52%

22 April, Thursday

Time Temperature Precipitation Wind Pressure Humidity
00:00 +15°C° 0 mm 5 mps 728 mmHg 55%
01:00 +14°C° 0 mm 4 mps 728 mmHg 57%
02:00 +14°C° 0 mm 4 mps 728 mmHg 59%
03:00 +13°C° 0 mm 4 mps 729 mmHg 61%
04:00 +13°C° 0 mm 4 mps 729 mmHg 62%
05:00 +12°C° 0 mm 4 mps 730 mmHg 64%
06:00 +13°C° 0 mm 4 mps 730 mmHg 59%
07:00 +14°C° 0 mm 4 mps 730 mmHg 55%
08:00 +14°C° 0 mm 4 mps 731 mmHg 51%
09:00 +17°C° 0 mm 4 mps 731 mmHg 47%
10:00 +18°C° 0 mm 3 mps 731 mmHg 42%
11:00 +19°C° 0 mm 3 mps 731 mmHg 38%
12:00 +20°C° 0 mm 3 mps 731 mmHg 34%
13:00 +21°C° 0 mm 3 mps 731 mmHg 30%
14:00 +22°C° 0 mm 4 mps 731 mmHg 26%
15:00 +22°C° 0 mm 4 mps 731 mmHg 26%
16:00 +22°C° 0 mm 5 mps 731 mmHg 25%
17:00 +22°C° 0 mm 5 mps 731 mmHg 24%
18:00 +21°C° 0 mm 5 mps 731 mmHg 26%
19:00 +19°C° 0 mm 4 mps 732 mmHg 27%
20:00 +18°C° 0 mm 4 mps 732 mmHg 28%
21:00 +17°C° 0 mm 3 mps 732 mmHg 30%
22:00 +17°C° 0 mm 3 mps 732 mmHg 32%
23:00 +16°C° 0 mm 2 mps 732 mmHg 34%
Show more